CANAVERAL EAST 120NM East of Cape Canaveral (41010)

Conditions for Saturday

Daily
Weekly
Monthly
Marine Data Graph

Current Weather/Wave Observations

Air Temperature: 79° F
Humidity: 78
Wind direction (W Dir): SE (135 - 144 Degrees)
Wind Speed (W Spd): 11.7 kts (13.4 mph)
Wind Gust (W Spd): 13.6 kts (15.7 mph)
Atmospheric Pressure (AP): 29.96 in

Updated: 4:40 PM EDT on August 24, 2019

Marine & Boating Location Search

Enter a coastal zip code for marine weather.

General Information

Location: 28.903 North -78.464 West
Buoy Type: 3-meter discus buoy
Buoy Hull: 3D26
Payload: ARES payload
Owned by: NDBC
Windspeed: Measured by obtained from anemometer
Sea Surface: Measured by Intake

Weather and Wave Data

Time Temp Humidity Wind Dominant Wave Wind Wave Wave Swell Pressure
  Air
(°F)
Water
(°F)
  Dir Speed
(kts)
Speed
(mph)
Period
(sec)
Height
(ft)
Range
(ft)
Period
(sec)
Height
(ft)
Range
(ft)
Period
(sec)
Height
(ft)
Range
(ft)
Atmo.
(in)
Tend.
(in)
20:10 82 86 72 SE 19.4 22.4 - - - - - - 29.99 -
20:20 83 86 70 ESE 17.5 20.1 - - - - - - 29.99 -
20:40 83 86 70 SE 17.5 20.1 - - - - - - 30.00 -
20:50 83 86 69 SE 17.5 20.1 6 4.92 exactly 4.9 6 4.92 4.10 - 5.74 11 1.64 0.82 - 2.46 29.99 -
21:10 83 86 71 SE 17.5 20.1 - - - - - - 29.99 -
21:20 83 86 71 SE 17.5 20.1 - - - - - - 30.00 -
21:50 83 86 71 SE 17.5 20.1 6 4.92 exactly 4.9 6 4.92 4.10 - 5.74 10 1.64 0.82 - 2.46 30.01 -
22:30 83 86 71 ESE 13.6 15.7 - - - - - - 30.02 -
22:40 83 86 71 ESE 13.6 15.7 - - - - - - 30.02 -
23:20 83 86 70 SE 15.6 17.9 - - - - - - 30.02 -
23:30 83 86 70 SE 15.6 17.9 - - - - - - 30.02 -
23:50 83 86 64 SE 13.6 15.7 7 4.59 exactly 4.6 7 4.92 4.10 - 5.74 13 1.64 0.82 - 2.46 30.02 -
00:00 83 86 64 SSE 13.6 15.7 - - - - - - 30.02 +0.03
00:10 83 86 65 SSE 13.6 15.7 - - - - - - 30.01 -
00:20 83 86 65 SE 13.6 15.7 - - - - - - 30.01 -
01:00 79 86 76 ESE 9.7 11.2 - - - - - - 30.00 -0.01
01:20 82 86 69 SE 15.6 17.9 - - - - - - 29.99 -
01:30 81 86 76 SE 17.5 20.1 - - - - - - 30.00 -
01:40 81 86 73 SE 15.6 17.9 - - - - - - 30.00 -
02:00 81 86 74 ESE 11.7 13.4 - - - - - - 29.99 -0.03
02:20 81 86 71 SE 13.6 15.7 - - - - - - 29.99 -
02:40 79 86 80 SSE 17.5 20.1 - - - - - - 29.99 -
03:10 80 86 74 SSE 15.6 17.9 - - - - - - 29.99 -
03:40 80 86 78 SSE 13.6 15.7 - - - - - - 29.98 -
03:50 80 86 77 SSE 11.7 13.4 7 4.59 exactly 4.6 5 3.28 2.46 - 4.10 7 3.28 2.46 - 4.10 29.98 -
04:10 80
-
76 SE 11.7 13.4 - - - - - - 29.97 -
04:30 80 86 76 SE 9.7 11.2 - - - - - - 29.97 -
05:10 80 86 77 ESE 11.7 13.4 - - - - - - 29.98 -
05:40 80 86 79 East 11.7 13.4 - - - - - - 29.98 -
05:50 80 86 79 East 11.7 13.4 6 3.94 exactly 3.9 5 1.64 0.82 - 2.46 6 3.28 2.46 - 4.10 29.98 -
06:10 79 86 83 East 13.6 15.7 - - - - - - 29.98 -
06:20 79 86 85 East 13.6 15.7 - - - - - - 29.98 -
06:30 79 86 85 East 13.6 15.7 - - - - - - 29.98 -
06:40 80 86 81 East 15.6 17.9 - - - - - - 29.98 -
06:50 80 86 80 East 13.6 15.7 7 3.61 exactly 3.6 6 3.28 2.46 - 4.10 7 1.64 0.82 - 2.46 29.98 -
07:10 80 86 78 ESE 13.6 15.7 - - - - - - 29.99 -
07:20 80 86 80 ESE 13.6 15.7 - - - - - - 29.98 -
07:30 80 86 81 ESE 13.6 15.7 - - - - - - 29.99 -
07:40 80 86 81 East 11.7 13.4 - - - - - - 29.99 -
07:50 80 86 81 East 11.7 13.4 - - - - - - 29.99 -
08:00 80 86 81 East 11.7 13.4 - - - - - - 29.99 +0.02
08:20 80 86 82 East 11.7 13.4 - - - - - - 29.99 -
08:40 80 86 82 East 13.6 15.7 - - - - - - 29.99 -
08:50 81 86 80 East 13.6 15.7 7 3.94 exactly 3.9 5 3.28 2.46 - 4.10 7 1.64 0.82 - 2.46 29.99 -
09:10 81 86 78 East 11.7 13.4 - - - - - - 30.00 -
09:30 81 86 79 East 11.7 13.4 - - - - - - 30.01 -
09:40 81
-
80 East 11.7 13.4 - - - - - - 30.01 -
09:50 81 86 79 ESE 13.6 15.7 6 3.61 exactly 3.6 6 3.28 2.46 - 4.10 7 1.64 0.82 - 2.46 30.01 -
10:10 80 85 78 SE 15.6 17.9 - - - - - - 30.01 -
10:20 80 85 78 SE 15.6 17.9 - - - - - - 30.01 -
10:30 80 85 79 SE 11.7 13.4 - - - - - - 30.00 -
11:00 80 86 78 SE 11.7 13.4 - - - - - - 30.01 +0.02
11:10 81 86 78 SSE 11.7 13.4 - - - - - - 30.01 -
11:20 80 86 81 SE 11.7 13.4 - - - - - - 30.01 -
11:30 80 86 81 SE 11.7 13.4 - - - - - - 30.01 -
11:40 80 86 82 ESE 9.7 11.2 - - - - - - 30.01 -
11:50 80 86 81 SE 9.7 11.2 6 3.61 exactly 3.6 5 1.64 0.82 - 2.46 6 3.28 2.46 - 4.10 30.01 -
12:00 80 86 82 SE 9.7 11.2 - - - - - - 30.01 +0.01
12:10 81 85 80 SE 11.7 13.4 - - - - - - 30.00 -
12:30 79 85 80 SE 13.6 15.7 - - - - - - 30.00 -
12:50 79 85 83 SE 11.7 13.4 6 3.61 exactly 3.6 4 3.28 2.46 - 4.10 6 3.28 2.46 - 4.10 29.99 -
13:10 79 85 82 SE 9.7 11.2 - - - - - - 29.99 -
13:20 79 85 81 SE 11.7 13.4 - - - - - - 29.99 -
13:30 79 85 81 SE 9.7 11.2 - - - - - - 30.00 -
13:40 79 85 83 ESE 9.7 11.2 - - - - - - 30.00 -
13:50 79 85 84 ESE 7.8 8.9 6 3.61 exactly 3.6 4 1.64 0.82 - 2.46 6 3.28 2.46 - 4.10 30.00 -
14:10 79 85 85 SE 9.7 11.2 - - - - - - 29.99 -
14:20 79 85 83 SE 9.7 11.2 - - - - - - 29.99 -
14:40 79 85 85 SE 13.6 15.7 - - - - - - 29.98 -
14:50 79 85 84 SSE 13.6 15.7 6 3.61 exactly 3.6 6 3.28 2.46 - 4.10 10 1.64 0.82 - 2.46 29.98 -
15:20 80 85 81 SSE 11.7 13.4 - - - - - - 29.97 -
15:40 80 85 81 SSE 13.6 15.7 - - - - - - 29.97 -
16:00 78 85 86 SSE 13.6 15.7 - - - - - - 29.97 -0.02
16:10 79 85 83 SSE 13.6 15.7 - - - - - - 29.97 -
16:30 79 85 78 SSE 11.7 13.4 - - - - - - 29.96 -
16:40 79 85 78 SE 11.7 13.4 - - - - - - 29.96 -

Detailed Wave Spectra

Time Water Depth Wave Height Spectral Peak Period Average Wave Period Sampling Interval Wave Record
21:00 2920 ft 4.89 ft 6.3 sec 4.8 sec 0.6 sec 2400 sec
23:00 2920 ft 4.89 ft 6.3 sec 4.8 sec 0.6 sec 2400 sec
03:00 2920 ft 4.69 ft 6.3 sec 4.8 sec 0.6 sec 2400 sec
06:00 2920 ft 3.87 ft 6.3 sec 5.1 sec 0.6 sec 2400 sec
07:00 2920 ft 3.44 ft 6.7 sec 4.7 sec 0.6 sec 2400 sec
09:00 2920 ft 3.81 ft 6.7 sec 4.9 sec 0.6 sec 2400 sec
10:00 2920 ft 3.64 ft 5.9 sec 4.7 sec 0.6 sec 2400 sec
13:00 2920 ft 3.64 ft 6.3 sec 4.7 sec 0.6 sec 2400 sec
14:00 2920 ft 3.44 ft 6.3 sec 4.7 sec 0.6 sec 2400 sec